FENGYUN 1C DEB

Satellite information

Favourite Embed

Satellite Type and Status

DEBRISIN ORBIT

Key statistics

Satellite FENGYUN 1C DEB at a glance.

Uptime

9555

Days in orbit

Revolutions

≈ 14.1

Per day

Orbit

SSO

Sun Synchronous Orbit

Inclination

99.2

Latest

Satellite identification and parameters

Extended collection of information and parameters for FENGYUN 1C DEB.

Object identification

Identified? True

Debris? True

Object name: FENGYUN 1C DEB

International designator: 1999-025VT

Object number (NORAD): 30210

Object ID (CCSDS): 30210

Country: PEOPLES REPUBLIC OF CHINA (PRC)

Current information (Y/N): Y

RCS size: SMALL

Orbital parameters

Period: 102.282 minutes

Inclination: 99.2069 deg

SMA: 7244.8 km

Apoapsis: 907.165 km

Periapsis: 826.166 km

RAAN: 234.365 deg

Eccentricy: 0.0055901

Argument of periapsis: 217.6588 deg

Mean anomaly: 294.9778 deg

Mean motion: 14.07871863 rev/day

Mean motion (dot): 0.00000642 rev/day2

B* drag term: 0.00040041 1/REarth

Two-line elements (TLE)

Creation date: July 6, 2025, 6:05 p.m.

Reference frame: TEME

Reference center: EARTH

Epoch: July 6, 2025, 3:18 p.m. UTC

TLE line 0: 0 FENGYUN 1C DEB

TLE line 1: 1 30210U 99025VT 25187.63758587 .00000642 00000-0 40041-3 0 9997

TLE line 2: 2 30210 99.2069 234.3650 0055901 217.6588 294.9778 14.07871863945181

Live tracking on map

Real-time ground track for satellite FENGYUN 1C DEB.

In-orbit conjunctions

A list of the most updated potential collisions computed for object FENGYUN 1C DEB.

Target Orbit TCA Probability of collision Miss distance Type
SL-16 R/B LEO 2025-06-30 03:01:10 0.0005681265 24.0 (m) ROCKET BODY
METEOR 1-11 LEO 2025-03-19 04:05:04 0.0001090281 573.0 (m) PAYLOAD
FENGYUN 1C DEB SSO 2024-09-12 06:34:40 0.0001874561 101.0 (m) DEBRIS
THORAD AGENA D DEB LEO 2024-08-15 17:15:53 0.0001778222 354.0 (m) DEBRIS

Associated space launch

Chinese polar orbiting meteorological satellite

FENGYUN 1C DEB was lifted into orbit during the mission ‘Long March 4B | Feng Yun 1C’, on board a Long March 4B space rocket.

The launch took place on May 10, 1999, 1:33 a.m. from Launch Complex 7.

For more information about the launch, click the button.

Launch to space Long March 4B | Feng Yun 1C
Long March 4B | Feng Yun 1C

Agency: N/A

Status: Launch Successful

Launch date: May 10, 1999, 1:33 a.m. UTC

Rocket: Long March 4B

Launch pad: Launch Complex 7

Location: Taiyuan Satellite Launch Center, People's Republic of China

...

Latest news about this satellite

There are no fresh news available about this satellite. Check back as we update our databases every day.


Newsletter sign-up

Weekly statistics, charts and insights to help you stay on top of the space industry.